This is the latest recevied weather packets stored in our database for station/object I1SXT-13. If no packets are shown the sender has not sent any weather packets the latest 10 day(s).
| Time | Temp. | Humidity | Pressure | Rain* | Wind** | Luminosity | Snow |
|---|---|---|---|---|---|---|---|
| 1777807464 | 19.44° C | 60% | 1022.3 hPa | 0 mm | - | - | - |
| 1777807167 | 20° C | 61% | 1022.5 hPa | 0 mm | - | - | - |
| 1777806870 | 20° C | 63% | 1021.7 hPa | 0 mm | - | - | - |
| 1777806566 | 19.44° C | 61% | 1022.4 hPa | 0 mm | - | - | - |
| 1777806268 | 20° C | 61% | 1022.5 hPa | 0 mm | - | - | - |
| 1777805964 | 20° C | 61% | 1021.5 hPa | 0 mm | - | - | - |
| 1777805667 | 19.44° C | 62% | 1021.4 hPa | 0 mm | - | - | - |
| 1777805370 | 18.89° C | 61% | 1021.7 hPa | 0 mm | - | - | - |
| 1777804465 | 18.89° C | 64% | 1022.3 hPa | 0 mm | - | - | - |
| 1777804167 | 18.89° C | 62% | 1022.5 hPa | 0 mm | - | - | - |
| 1777803863 | 18.89° C | 63% | 1022.4 hPa | 0 mm | - | - | - |
| 1777803566 | 18.89° C | 64% | 1022.7 hPa | 0 mm | - | - | - |
| 1777803269 | 18.33° C | 65% | 1022.2 hPa | 0 mm | - | - | - |
| 1777802965 | 18.33° C | 66% | 1022.6 hPa | 0 mm | - | - | - |
| 1777802668 | 18.33° C | 66% | 1022.8 hPa | 0 mm | - | - | - |
| 1777802364 | 18.33° C | 66% | 1022.9 hPa | 0 mm | - | - | - |
| 1777801769 | 18.33° C | 66% | 1022.5 hPa | 0 mm | - | - | - |
| 1777800864 | 18.89° C | 66% | 1022.1 hPa | 0 mm | - | - | - |
| 1777800567 | 18.89° C | 67% | 1021.5 hPa | 0 mm | - | - | - |
| 1777800269 | 18.33° C | 67% | 1021.8 hPa | 0 mm | - | - | - |
| 1777799966 | 18.33° C | 67% | 1021.8 hPa | 0 mm | - | - | - |
| 1777799668 | 18.33° C | 67% | 1021.6 hPa | 0 mm | - | - | - |
| 1777799364 | 18.33° C | 66% | 1022.6 hPa | 0 mm | - | - | - |
| 1777799067 | 18.33° C | 67% | 1022.4 hPa | 0 mm | - | - | - |
| 1777798770 | 17.78° C | 67% | 1021.9 hPa | 0 mm | - | - | - |
* Rain since midnight (hover to see other rain measurements)
** Current wind speed in m/s (hover to see current wind gust speed)